x

Halibut Bank (46146) Wave Buoy

5:00 - Fri 25th Jul 2014 All times are PDT. -7 hours from GMT.

  • Sig Wave height 0.3ft
  • Peak Period 6s
  • Wind
  • Sea Temp 65°f
  • Luft Temp 64°f
  • Sea Pressure 1020mb
  • Halibut Bank
  • Halibut Bank

More Historic Weather Station data

Upgrade to MSW Pro to gain access to the past 30 days of data for over 8000 Wavebouys and Weather Stations around the globe.

Join Pro

Comparision Forecast

View Surf forecast
   
Fr 07/25 5:00 0.3ft 6s  -  2 mph 1020mb 65f 64f
4:00 0.3ft 6s 4
mph
1020.4mb 64f 62f
3:00 0.3ft 2s 4
mph
1020.7mb 64f 61f
2:00 0.3ft 2s 4
mph
1021.2mb 64f 60f
1:00 0.7ft 3s 4 7 mph 1021.6mb 62f 60f
12:00 0.7ft 3s 9
mph
1021.6mb 62f 59f
11:00 1ft 3s 9 11 mph 1021.7mb 61f 58f
10:00 1.3ft 3s 11 13 mph 1021.6mb 61f 58f
9:00 1.3ft 3s 13 16 mph 1021.5mb 61f 57f
8:00 1ft 3s 11 13 mph 1021.4mb 62f 58f
7:00 1ft 3s 13 16 mph 1021.2mb 62f 58f
6:00 1.3ft 3s 13 16 mph 1020.9mb 61f 58f
5:00 1.3ft 3s 13 16 mph 1021mb 61f 58f
4:00 1.3ft 3s 16
mph
1021mb 61f 58f
3:00 1.6ft 3s 16 18 mph 1021.2mb 61f 59f
2:00 1.6ft 3s 18 20 mph 1021mb 61f 60f
1:00 1.3ft 4s 18 20 mph 1021mb 61f 60f
12:00 1.3ft 3s 18 20 mph 1021mb 62f 61f
Do 07/24 11:00 0.7ft 2s 16 18 mph 1021.1mb 62f 62f
10:00 0.3ft 2s 7 9 mph 1021.2mb 62f 62f
9:00 0.7ft 3s 7 9 mph 1020.8mb 63f 62f
8:00 0.7ft 2s 7 11 mph 1020.6mb 63f 62f
7:00 0.3ft 2s 9 11 mph 1020.4mb 63f 62f
6:00 0.3ft 3s 11
mph
1020.4mb 62f 62f
5:00 0.3ft 5s 9 11 mph 1020.6mb 62f 62f
4:00 0.3ft 6s 9
mph
1020.9mb 63f 61f
3:00 0.3ft 3s 4
mph
1021.1mb 63f 60f
2:00 0.3ft 7s 2 4 mph 1021mb 63f 60f
1:00 0.3ft 2s 4
mph
1020.7mb 62f 59f
12:00 0.3ft 6s 4 7 mph 1020.4mb 62f 58f
11:00 0.3ft 3s  -  2 mph 1019.9mb 61f 58f
10:00 0.7ft 3s 4
mph
1019.3mb 60f 57f
9:00 0.7ft 3s 7 9 mph 1018.5mb 60f 45f
8:00 1ft 3s 4 11 mph 1017.7mb 60f 47f
7:00 1ft 3s 7 9 mph 1017mb 60f 54f
6:00 0.7ft 3s 13 16 mph 1016.3mb 60f 55f
5:00 0.7ft 3s 16 18 mph 1016.1mb 60f 55f
4:00 0.7ft 3s 11 13 mph 1016mb 61f 52f
3:00 0.7ft 3s 11 13 mph 1015.9mb 62f 54f
2:00 1ft 3s 9 11 mph 1016.1mb 63f 55f
1:00 1.3ft 3s 13 16 mph 1015.9mb 63f 56f
12:00 1.3ft 3s 13 18 mph 1016.1mb 63f 57f
Mi 07/23 11:00 0.3ft 3s 16 18 mph 1016mb 62f 57f
10:00 0.7ft 4s 9
mph
1016.2mb 62f 56f
9:00 1ft 4s 7
mph
1016.2mb 61f 55f
8:00 1.3ft 3s 11
mph
1015.5mb 61f 56f
7:00 1ft 3s 13 16 mph 1014.6mb 61f 58f
6:00 0.7ft 2s 13 16 mph 1013.9mb 62f 58f
5:00 0.7ft 2s 9 16 mph 1013.9mb 63f 59f
4:00 1ft 2s 13
mph
1014.1mb 62f 60f
3:00 0.7ft 2s 13 16 mph 1014.6mb 64f 60f
2:00 0.3ft 3s 11 13 mph 1014.8mb 65f 60f
1:00 0.3ft 4s 7 9 mph 1014.9mb 65f 60f
12:00 0.3ft 2s 4 7 mph 1014.9mb 65f 60f
11:00 0.3ft 2s 2
mph
1014.9mb 64f 59f
10:00 0.3ft 6s 4
mph
1015mb 64f 60f
9:00 0.3ft 2s 2 4 mph 1014.7mb 64f 60f
8:00 0.3ft 6s 4 7 mph 1014.5mb 64f 60f
7:00 0.3ft 2s  -  2 mph 1014.7mb 64f 60f
6:00 0.3ft 2s 4 7 mph 1014.7mb 64f 59f
5:00 0.3ft 4s 4
mph
1014.7mb 65f 59f
4:00 0.3ft 2s 7
mph
1015.3mb 65f 59f
3:00 0.3ft 2s 4
mph
1015.7mb 64f 59f
2:00 0.3ft 2s 2 4 mph 1015.6mb 63f 59f
1:00 0.3ft 3s 4
mph
1016.2mb 63f 60f
12:00 0.7ft 3s 4
mph
1016.5mb 62f 60f
Di 07/22 11:00 0.7ft 3s 4
mph
1016.5mb 64f 60f
10:00 1ft 3s 9
mph
1016.6mb 64f 61f
9:00 1.3ft 3s 11 13 mph 1016.4mb 64f 62f
8:00 1.3ft 4s 13 16 mph 1016.4mb 65f 62f
7:00 1.6ft 4s 16 20 mph 1016.6mb 65f 62f
6:00 1.3ft 3s 18 22 mph 1016.5mb 66f 62f
5:00 1.3ft 3s 18 22 mph 1016.9mb 66f 62f
4:00 0.7ft 2s 16 18 mph 1017mb 65f 63f
3:00 0.7ft 2s 11 13 mph 1017.4mb 65f 62f
2:00 0.7ft 2s 11
mph
1017.5mb 65f 62f
1:00 0.7ft 3s 11 13 mph 1017.3mb 65f 62f
12:00 1ft 3s 11 13 mph 1017.3mb 65f 61f
11:00 1ft 3s 11 13 mph 1017.3mb 64f 60f
10:00 1.3ft 3s 13 16 mph 1017.1mb 64f 60f
9:00 1.3ft 3s 13 18 mph 1017mb 64f 59f
8:00 1.3ft 3s 13 16 mph 1016.8mb 64f 59f
7:00 1.3ft 3s 16 18 mph 1016.2mb 64f 59f
6:00 1.3ft 3s 13 16 mph 1015.9mb 64f 59f
5:00 1.3ft 3s 13 16 mph 1015.7mb 64f 60f
4:00 1.3ft 3s 13 16 mph 1015.5mb 64f 60f
3:00 1ft 3s 13 18 mph 1015.3mb 64f 61f
2:00 1ft 3s 11 13 mph 1015.3mb 64f 62f